Time,TemperatureF,DewpointF,PressureIn,WindDirection,WindDirectionDegrees,WindSpeedMPH,WindSpeedGustMPH,Humidity,HourlyPrecipIn,Conditions,Clouds,dailyrainin,SoftwareType,DateUTC
2013-05-11 00:03:00,-999.0,-99.9,30.09,West,276,3.0,4.0,-999,-99.99,,,-99.99,,2013-05-11 04:03:00,
2013-05-11 00:23:00,-999.0,-99.9,30.10,WNW,296,3.0,5.0,-999,-99.99,,,-99.99,,2013-05-11 04:23:00,
2013-05-11 00:33:00,77.0,-99.9,30.09,North,-999,-999.0,-999.0,-999,-99.99,,,-99.99,,2013-05-11 04:33:00,
2013-05-11 00:43:00,-999.0,-99.9,30.09,WSW,252,2.0,2.0,-999,-99.99,,,-99.99,,2013-05-11 04:43:00,
2013-05-11 00:52:00,76.0,-99.9,30.09,North,-999,-999.0,-999.0,-999,-99.99,,,-99.99,,2013-05-11 04:52:00,
2013-05-11 01:02:00,-999.0,-99.9,30.09,WSW,247,2.0,3.0,-999,-99.99,,,-99.99,,2013-05-11 05:02:00,
2013-05-11 01:12:00,-999.0,-99.9,30.09,WSW,257,2.0,3.0,-999,-99.99,,,-99.99,,2013-05-11 05:12:00,
2013-05-11 01:22:00,76.0,-99.9,30.09,North,-999,-999.0,-999.0,-999,-99.99,,,-99.99,,2013-05-11 05:22:00,
2013-05-11 01:43:00,-999.0,-99.9,30.08,SSE,167,4.0,6.0,-999,-99.99,,,-99.99,,2013-05-11 05:43:00,
2013-05-11 01:52:00,-999.0,-99.9,30.08,SSW,206,4.0,4.0,-999,-99.99,,,-99.99,,2013-05-11 05:52:00,
2013-05-11 02:02:00,-999.0,-99.9,30.08,SSW,205,3.0,3.0,-999,-99.99,,,-99.99,,2013-05-11 06:02:00,
2013-05-11 02:22:00,-999.0,-99.9,30.07,WSW,245,3.0,3.0,-999,-99.99,,,-99.99,,2013-05-11 06:22:00,
2013-05-11 02:32:00,-999.0,-99.9,30.07,SW,235,2.0,4.0,-999,-99.99,,,-99.99,,2013-05-11 06:32:00,
2013-05-11 02:42:00,-999.0,-99.9,30.07,South,173,2.0,2.0,-999,-99.99,,,-99.99,,2013-05-11 06:42:00,
2013-05-11 02:53:00,76.0,-99.9,-100.00,North,-999,-999.0,-999.0,-999,-99.99,,,-99.99,,2013-05-11 06:53:00,
2013-05-11 03:12:00,-999.0,-99.9,30.07,West,280,0.0,2.0,-999,-99.99,,,-99.99,,2013-05-11 07:12:00,
2013-05-11 03:22:00,76.0,-99.9,30.07,North,-999,-999.0,-999.0,-999,-99.99,,,-99.99,,2013-05-11 07:22:00,
2013-05-11 03:32:00,-999.0,-99.9,30.07,West,276,1.0,2.0,-999,-99.99,,,-99.99,,2013-05-11 07:32:00,
2013-05-11 03:42:00,76.0,-99.9,30.06,North,-999,-999.0,-999.0,-999,-99.99,,,-99.99,,2013-05-11 07:42:00,
2013-05-11 03:52:00,-999.0,-99.9,30.05,West,267,2.0,3.0,-999,-99.99,,,-99.99,,2013-05-11 07:52:00,
2013-05-11 04:22:00,-999.0,-99.9,30.03,SSE,157,8.0,9.0,-999,-99.99,,,-99.99,,2013-05-11 08:22:00,
2013-05-11 04:32:00,-999.0,-99.9,30.03,SSE,155,8.0,9.0,-999,-99.99,,,-99.99,,2013-05-11 08:32:00,
2013-05-11 04:43:00,76.0,-99.9,30.03,North,-999,-999.0,-999.0,-999,-99.99,,,-99.99,,2013-05-11 08:43:00,
2013-05-11 04:52:00,-999.0,-99.9,30.03,SSE,150,8.0,9.0,-999,-99.99,,,-99.99,,2013-05-11 08:52:00,
2013-05-11 05:01:00,-999.0,-99.9,30.03,SSE,162,9.0,10.0,-999,-99.99,,,-99.99,,2013-05-11 09:01:00,
2013-05-11 05:12:00,-999.0,-99.9,30.03,SSE,163,9.0,10.0,-999,-99.99,,,-99.99,,2013-05-11 09:12:00,
2013-05-11 05:21:00,75.0,-99.9,30.04,North,-999,-999.0,-999.0,-999,-99.99,,,-99.99,,2013-05-11 09:21:00,
2013-05-11 05:33:00,75.0,-99.9,30.04,North,-999,-999.0,-999.0,-999,-99.99,,,-99.99,,2013-05-11 09:33:00,
2013-05-11 05:42:00,75.0,-99.9,30.04,North,-999,-999.0,-999.0,-999,-99.99,,,-99.99,,2013-05-11 09:42:00,
2013-05-11 05:53:00,75.0,-99.9,30.04,North,-999,-999.0,-999.0,-999,-99.99,,,-99.99,,2013-05-11 09:53:00,
2013-05-11 06:03:00,-999.0,-99.9,30.04,SSE,150,10.0,11.0,-999,-99.99,,,-99.99,,2013-05-11 10:03:00,
2013-05-11 06:23:00,-999.0,-99.9,30.04,SE,139,11.0,14.0,-999,-99.99,,,-99.99,,2013-05-11 10:23:00,
2013-05-11 06:33:00,-999.0,-99.9,30.05,SSE,154,13.0,14.0,-999,-99.99,,,-99.99,,2013-05-11 10:33:00,
2013-05-11 06:42:00,74.0,-99.9,30.05,North,-999,-999.0,-999.0,-999,-99.99,,,-99.99,,2013-05-11 10:42:00,
2013-05-11 06:53:00,74.0,-99.9,30.05,North,-999,-999.0,-999.0,-999,-99.99,,,-99.99,,2013-05-11 10:53:00,
2013-05-11 07:03:00,74.0,-99.9,30.05,North,-999,-999.0,-999.0,-999,-99.99,,,-99.99,,2013-05-11 11:03:00,
2013-05-11 07:22:00,74.0,-99.9,30.05,North,-999,-999.0,-999.0,-999,-99.99,,,-99.99,,2013-05-11 11:22:00,
2013-05-11 07:32:00,-999.0,-99.9,30.05,SSE,156,13.0,15.0,-999,-99.99,,,-99.99,,2013-05-11 11:32:00,
2013-05-11 07:42:00,74.0,-99.9,30.06,North,-999,-999.0,-999.0,-999,-99.99,,,-99.99,,2013-05-11 11:42:00,
2013-05-11 07:52:00,-999.0,-99.9,30.06,SSE,163,11.0,14.0,-999,-99.99,,,-99.99,,2013-05-11 11:52:00,
2013-05-11 08:01:00,73.0,-99.9,30.07,North,-999,-999.0,-999.0,-999,-99.99,,,-99.99,,2013-05-11 12:01:00,
2013-05-11 08:12:00,-999.0,-99.9,30.07,SSE,163,10.0,11.0,-999,-99.99,,,-99.99,,2013-05-11 12:12:00,
2013-05-11 08:22:00,-999.0,-99.9,30.06,SSE,160,10.0,12.0,-999,-99.99,,,-99.99,,2013-05-11 12:22:00,
2013-05-11 08:32:00,73.0,-99.9,30.07,North,-999,-999.0,-999.0,-999,-99.99,,,-99.99,,2013-05-11 12:32:00,
2013-05-11 08:42:00,73.0,-99.9,30.06,North,-999,-999.0,-999.0,-999,-99.99,,,-99.99,,2013-05-11 12:42:00,
2013-05-11 08:52:00,74.0,-99.9,30.07,North,-999,-999.0,-999.0,-999,-99.99,,,-99.99,,2013-05-11 12:52:00,
2013-05-11 09:02:00,-999.0,-99.9,30.07,South,171,11.0,12.0,-999,-99.99,,,-99.99,,2013-05-11 13:02:00,
2013-05-11 09:11:00,-999.0,-99.9,30.07,South,181,10.0,12.0,-999,-99.99,,,-99.99,,2013-05-11 13:11:00,
2013-05-11 09:22:00,74.0,-99.9,30.07,North,-999,-999.0,-999.0,-999,-99.99,,,-99.99,,2013-05-11 13:22:00,
2013-05-11 09:32:00,-999.0,-99.9,30.07,SSE,168,10.0,11.0,-999,-99.99,,,-99.99,,2013-05-11 13:32:00,
2013-05-11 09:42:00,-999.0,-99.9,30.07,South,177,8.0,10.0,-999,-99.99,,,-99.99,,2013-05-11 13:42:00,
2013-05-11 09:52:00,-999.0,-99.9,30.08,South,170,8.0,11.0,-999,-99.99,,,-99.99,,2013-05-11 13:52:00,
2013-05-11 10:02:00,-999.0,-99.9,30.08,SSE,168,9.0,10.0,-999,-99.99,,,-99.99,,2013-05-11 14:02:00,
2013-05-11 10:11:00,-999.0,-99.9,30.08,South,170,7.0,10.0,-999,-99.99,,,-99.99,,2013-05-11 14:11:00,
2013-05-11 10:21:00,75.0,-99.9,30.08,North,-999,-999.0,-999.0,-999,-99.99,,,-99.99,,2013-05-11 14:21:00,
2013-05-11 10:32:00,-999.0,-99.9,30.09,SSE,167,10.0,11.0,-999,-99.99,,,-99.99,,2013-05-11 14:32:00,
2013-05-11 10:42:00,76.0,-99.9,30.08,North,-999,-999.0,-999.0,-999,-99.99,,,-99.99,,2013-05-11 14:42:00,
2013-05-11 10:52:00,-999.0,-99.9,30.08,SSE,166,8.0,10.0,-999,-99.99,,,-99.99,,2013-05-11 14:52:00,
2013-05-11 11:22:00,-999.0,-99.9,30.08,SSW,198,9.0,15.0,-999,-99.99,,,-99.99,,2013-05-11 15:22:00,
2013-05-11 11:32:00,-999.0,-99.9,30.08,SSW,192,11.0,14.0,-999,-99.99,,,-99.99,,2013-05-11 15:32:00,
2013-05-11 11:43:00,79.0,-99.9,30.08,North,-999,-999.0,-999.0,-999,-99.99,,,-99.99,,2013-05-11 15:43:00,
2013-05-11 11:53:00,79.0,-99.9,30.08,North,-999,-999.0,-999.0,-999,-99.99,,,-99.99,,2013-05-11 15:53:00,
2013-05-11 12:03:00,79.0,-99.9,30.08,North,-999,-999.0,-999.0,-999,-99.99,,,-99.99,,2013-05-11 16:03:00,
2013-05-11 12:23:00,80.0,-99.9,30.07,North,-999,-999.0,-999.0,-999,-99.99,,,-99.99,,2013-05-11 16:23:00,
2013-05-11 12:42:00,80.0,-99.9,30.08,North,-999,-999.0,-999.0,-999,-99.99,,,-99.99,,2013-05-11 16:42:00,
2013-05-11 12:53:00,-999.0,-99.9,30.08,SSW,200,13.0,18.0,-999,-99.99,,,-99.99,,2013-05-11 16:53:00,
2013-05-11 13:02:00,-999.0,-99.9,30.08,WSW,246,13.0,17.0,-999,-99.99,,,-99.99,,2013-05-11 17:02:00,
2013-05-11 13:12:00,-999.0,-99.9,30.08,SW,225,11.0,15.0,-999,-99.99,,,-99.99,,2013-05-11 17:12:00,
2013-05-11 13:22:00,-999.0,-99.9,30.07,SW,235,13.0,16.0,-999,-99.99,,,-99.99,,2013-05-11 17:22:00,
2013-05-11 13:32:00,82.0,-99.9,30.07,North,-999,-999.0,-999.0,-999,-99.99,,,-99.99,,2013-05-11 17:32:00,
2013-05-11 13:42:00,-999.0,-99.9,30.07,SW,224,13.0,17.0,-999,-99.99,,,-99.99,,2013-05-11 17:42:00,
2013-05-11 13:52:00,81.0,-99.9,30.06,North,-999,-999.0,-999.0,-999,-99.99,,,-99.99,,2013-05-11 17:52:00,
2013-05-11 14:12:00,-999.0,-99.9,30.07,SW,230,12.0,15.0,-999,-99.99,,,-99.99,,2013-05-11 18:12:00,
2013-05-11 14:22:00,-999.0,-99.9,30.07,SSW,210,12.0,17.0,-999,-99.99,,,-99.99,,2013-05-11 18:22:00,
2013-05-11 14:32:00,82.0,-99.9,30.06,North,-999,-999.0,-999.0,-999,-99.99,,,-99.99,,2013-05-11 18:32:00,
2013-05-11 14:42:00,-999.0,-99.9,30.07,SW,220,13.0,18.0,-999,-99.99,,,-99.99,,2013-05-11 18:42:00,
2013-05-11 14:52:00,82.0,-99.9,30.06,North,-999,-999.0,-999.0,-999,-99.99,,,-99.99,,2013-05-11 18:52:00,
2013-05-11 15:02:00,82.0,-99.9,30.05,North,-999,-999.0,-999.0,-999,-99.99,,,-99.99,,2013-05-11 19:02:00,
2013-05-11 15:11:00,-999.0,-99.9,30.05,SW,222,12.0,17.0,-999,-99.99,,,-99.99,,2013-05-11 19:11:00,
2013-05-11 15:22:00,-999.0,-99.9,30.05,SW,218,12.0,19.0,-999,-99.99,,,-99.99,,2013-05-11 19:22:00,
2013-05-11 15:42:00,82.0,-99.9,30.05,North,-999,-999.0,-999.0,-999,-99.99,,,-99.99,,2013-05-11 19:42:00,
2013-05-11 15:53:00,81.0,-99.9,30.05,North,-999,-999.0,-999.0,-999,-99.99,,,-99.99,,2013-05-11 19:53:00,
2013-05-11 16:02:00,-999.0,-99.9,30.05,SW,232,14.0,18.0,-999,-99.99,,,-99.99,,2013-05-11 20:02:00,
2013-05-11 16:12:00,-999.0,-99.9,30.05,WSW,238,12.0,15.0,-999,-99.99,,,-99.99,,2013-05-11 20:12:00,
2013-05-11 16:22:00,-999.0,-99.9,30.05,WSW,254,15.0,19.0,-999,-99.99,,,-99.99,,2013-05-11 20:22:00,
2013-05-11 16:32:00,81.0,-99.9,30.05,North,-999,-999.0,-999.0,-999,-99.99,,,-99.99,,2013-05-11 20:32:00,
2013-05-11 16:42:00,-999.0,-99.9,30.05,WSW,237,15.0,19.0,-999,-99.99,,,-99.99,,2013-05-11 20:42:00,
2013-05-11 16:53:00,-999.0,-99.9,30.04,SW,234,14.0,18.0,-999,-99.99,,,-99.99,,2013-05-11 20:53:00,
2013-05-11 17:22:00,80.0,-99.9,30.04,North,-999,-999.0,-999.0,-999,-99.99,,,-99.99,,2013-05-11 21:22:00,
2013-05-11 17:33:00,-999.0,-99.9,30.04,SW,233,13.0,18.0,-999,-99.99,,,-99.99,,2013-05-11 21:33:00,
2013-05-11 17:43:00,80.0,-99.9,30.04,North,-999,-999.0,-999.0,-999,-99.99,,,-99.99,,2013-05-11 21:43:00,
2013-05-11 17:53:00,80.0,-99.9,30.04,North,-999,-999.0,-999.0,-999,-99.99,,,-99.99,,2013-05-11 21:53:00,
2013-05-11 18:03:00,-999.0,-99.9,30.05,WSW,245,14.0,17.0,-999,-99.99,,,-99.99,,2013-05-11 22:03:00,
2013-05-11 18:13:00,-999.0,-99.9,30.04,West,259,13.0,17.0,-999,-99.99,,,-99.99,,2013-05-11 22:13:00,
2013-05-11 18:23:00,79.0,-99.9,30.04,North,-999,-999.0,-999.0,-999,-99.99,,,-99.99,,2013-05-11 22:23:00,
2013-05-11 18:33:00,-999.0,-99.9,30.04,West,262,12.0,15.0,-999,-99.99,,,-99.99,,2013-05-11 22:33:00,
2013-05-11 18:43:00,79.0,-99.9,30.04,North,-999,-999.0,-999.0,-999,-99.99,,,-99.99,,2013-05-11 22:43:00,
2013-05-11 18:52:00,-999.0,-99.9,30.04,West,263,12.0,16.0,-999,-99.99,,,-99.99,,2013-05-11 22:52:00,
2013-05-11 19:02:00,-999.0,-99.9,30.04,WSW,256,12.0,17.0,-999,-99.99,,,-99.99,,2013-05-11 23:02:00,
2013-05-11 19:22:00,-999.0,-99.9,30.04,West,266,12.0,15.0,-999,-99.99,,,-99.99,,2013-05-11 23:22:00,
2013-05-11 19:32:00,-999.0,-99.9,30.04,West,265,13.0,15.0,-999,-99.99,,,-99.99,,2013-05-11 23:32:00,
2013-05-11 19:42:00,-999.0,-99.9,30.03,West,278,11.0,13.0,-999,-99.99,,,-99.99,,2013-05-11 23:42:00,
2013-05-11 19:52:00,-999.0,-99.9,30.03,West,275,9.0,12.0,-999,-99.99,,,-99.99,,2013-05-11 23:52:00,
2013-05-11 20:01:00,79.0,-99.9,30.04,North,-999,-999.0,-999.0,-999,-99.99,,,-99.99,,2013-05-12 00:01:00,
2013-05-11 20:12:00,-999.0,-99.9,30.05,WNW,296,11.0,15.0,-999,-99.99,,,-99.99,,2013-05-12 00:12:00,
2013-05-11 20:21:00,-999.0,-99.9,30.05,WNW,293,12.0,17.0,-999,-99.99,,,-99.99,,2013-05-12 00:21:00,
2013-05-11 20:42:00,-999.0,-99.9,30.05,NNW,338,7.0,12.0,-999,-99.99,,,-99.99,,2013-05-12 00:42:00,
2013-05-11 20:52:00,-999.0,-99.9,30.05,NNW,346,6.0,9.0,-999,-99.99,,,-99.99,,2013-05-12 00:52:00,
2013-05-11 21:01:00,-999.0,-99.9,30.05,North,356,5.0,8.0,-999,-99.99,,,-99.99,,2013-05-12 01:01:00,
2013-05-11 21:21:00,-999.0,-99.9,30.06,NNW,337,6.0,9.0,-999,-99.99,,,-99.99,,2013-05-12 01:21:00,
2013-05-11 21:32:00,75.0,-99.9,30.06,North,-999,-999.0,-999.0,-999,-99.99,,,-99.99,,2013-05-12 01:32:00,
2013-05-11 21:42:00,-999.0,-99.9,30.06,North,3,6.0,8.0,-999,-99.99,,,-99.99,,2013-05-12 01:42:00,
2013-05-11 21:52:00,-999.0,-99.9,30.06,North,357,3.0,5.0,-999,-99.99,,,-99.99,,2013-05-12 01:52:00,
2013-05-11 22:12:00,-999.0,-99.9,30.05,NE,35,4.0,6.0,-999,-99.99,,,-99.99,,2013-05-12 02:12:00,
2013-05-11 22:22:00,75.0,-99.9,30.06,North,-999,-999.0,-999.0,-999,-99.99,,,-99.99,,2013-05-12 02:22:00,
2013-05-11 22:32:00,-999.0,-99.9,30.06,ENE,64,2.0,4.0,-999,-99.99,,,-99.99,,2013-05-12 02:32:00,
2013-05-11 22:42:00,-999.0,-99.9,30.06,East,82,2.0,4.0,-999,-99.99,,,-99.99,,2013-05-12 02:42:00,
2013-05-11 22:52:00,-999.0,-99.9,30.06,East,85,2.0,3.0,-999,-99.99,,,-99.99,,2013-05-12 02:52:00,
2013-05-11 23:02:00,-999.0,-99.9,30.06,ENE,70,1.0,2.0,-999,-99.99,,,-99.99,,2013-05-12 03:02:00,
2013-05-11 23:22:00,75.0,-99.9,30.07,North,-999,-999.0,-999.0,-999,-99.99,,,-99.99,,2013-05-12 03:22:00,
2013-05-11 23:33:00,75.0,-99.9,30.07,North,-999,-999.0,-999.0,-999,-99.99,,,-99.99,,2013-05-12 03:33:00,
2013-05-11 23:43:00,75.0,-99.9,30.07,North,-999,-999.0,-999.0,-999,-99.99,,,-99.99,,2013-05-12 03:43:00,
2013-05-11 23:53:00,75.0,-99.9,30.06,North,-999,-999.0,-999.0,-999,-99.99,,,-99.99,,2013-05-12 03:53:00,